Weather in Suiemtsi

Ukraine / Zhytomyr Region     50°24′20″N   27°34′07″E
temp.,
°C
wind,
m/s
gust,
m/s
humid.,
%
clouds,
%
prec.,
mm/h
press.,
hPa
HPBL,
m
24 october, sun
sun2400:00+5wnw6118329 0.1 1023584
03:00+6wnw6107397 0.1 1024778
06:00+5wnw61078100 0.1 1025686
09:00+4wnw5108984 0.1 1027548
12:00+7nw795984 0.0 10291449
15:00+7nw6953100 0.1 10291647
18:00+7nnw6849100 0.0 10301056
21:00+4nw2262100 0.0 103224
25 october, mon
mon2500:00+3nw2268100 0.0 103323
03:00+1wnw11795 0.0 103310
06:00+1wnw11835 0.0 103310
09:00+2s22765 0.0 103444
12:00+7sse33520 0.0 1033617
15:00+10s34400 0.0 1031887
18:00+6sse33510 0.0 103035
21:00+4sse47584 0.0 1030106
26 october, tue
tue2600:00+3s411635 0.0 1030185
03:00+2sse411655 0.0 1030199
06:00+1sse412655 0.0 1029216
09:00+2s513605 0.0 1028304
12:00+9s69392 0.0 1027635
15:00+12s68310 0.0 1024944
18:00+7s45440 0.0 102463
21:00+5s410570 0.0 1024155
27 october, wed
wed2700:00+3s49690 0.0 1024159
03:00+3s49810 0.0 1024159
06:00+2ssw36925 0.0 1023113
09:00+2sw3588100 0.0 1023139
12:00+8w4650100 0.0 1023437
15:00+11wnw575199 0.0 1023938
18:00+6w35798 0.0 102461
21:00+5wnw379229 0.0 1025126
28 october, thu
thu2800:00+8nw2681100 0.0 1026150
03:00+5wnw349064 0.0 102749
06:00+4w33905 0.0 102827
09:00+4wsw348812 0.0 102988
12:00+9wsw456736 0.0 1029339
15:00+13w56586 0.0 1027747
18:00+9w337972 0.0 102735
21:00+7wsw35895 0.0 102877